Year,Month,Day,Hour,Minute,Value (Times are PST for temperature in C)
2010,07,10,00,00,18.60
2010,07,10,00,01,18.60
2010,07,10,00,02,18.60
2010,07,10,00,03,18.60
2010,07,10,00,04,18.60
2010,07,10,00,05,18.50
2010,07,10,00,06,18.50
2010,07,10,00,07,18.50
2010,07,10,00,08,18.50
2010,07,10,00,09,18.50
2010,07,10,00,10,18.40
2010,07,10,00,11,18.40
2010,07,10,00,12,18.40
2010,07,10,00,13,18.40
2010,07,10,00,14,18.40
2010,07,10,00,15,18.40
2010,07,10,00,16,18.50
2010,07,10,00,17,18.50
2010,07,10,00,18,18.50
2010,07,10,00,19,18.50
2010,07,10,00,20,18.50
2010,07,10,00,21,18.50
2010,07,10,00,22,18.50
2010,07,10,00,23,18.50
2010,07,10,00,24,18.50
2010,07,10,00,25,18.50
2010,07,10,00,26,18.50
2010,07,10,00,27,18.50
2010,07,10,00,28,18.50
2010,07,10,00,29,18.50
2010,07,10,00,30,18.50
2010,07,10,00,31,18.50
2010,07,10,00,32,18.50
2010,07,10,00,33,18.50
2010,07,10,00,34,18.40
2010,07,10,00,35,18.40
2010,07,10,00,36,18.40
2010,07,10,00,37,18.40
2010,07,10,00,38,18.40
2010,07,10,00,39,18.40
2010,07,10,00,40,18.40
2010,07,10,00,41,18.40
2010,07,10,00,42,18.30
2010,07,10,00,43,18.30
2010,07,10,00,44,18.30
2010,07,10,00,45,18.30
2010,07,10,00,46,18.30
2010,07,10,00,47,18.20
2010,07,10,00,48,18.20
2010,07,10,00,49,18.20
2010,07,10,00,50,18.20
2010,07,10,00,51,18.10
2010,07,10,00,52,18.10
2010,07,10,00,53,18.10
2010,07,10,00,54,18.10
2010,07,10,00,55,18.10
2010,07,10,00,56,18.10
2010,07,10,00,57,18.00
2010,07,10,00,58,18.00
2010,07,10,00,59,18.00
2010,07,10,01,00,18.00
2010,07,10,01,01,18.00
2010,07,10,01,02,18.00
2010,07,10,01,03,17.90
2010,07,10,01,04,17.90
2010,07,10,01,05,17.90
2010,07,10,01,06,17.90
2010,07,10,01,07,17.80
2010,07,10,01,08,17.80
2010,07,10,01,09,17.80
2010,07,10,01,10,17.80
2010,07,10,01,11,17.70
2010,07,10,01,12,17.70
2010,07,10,01,13,17.70
2010,07,10,01,14,17.60
2010,07,10,01,15,17.60
2010,07,10,01,16,17.60
2010,07,10,01,17,17.60
2010,07,10,01,18,17.60
2010,07,10,01,19,17.60
2010,07,10,01,20,17.60
2010,07,10,01,21,17.60
2010,07,10,01,22,17.60
2010,07,10,01,23,17.60
2010,07,10,01,24,17.70
2010,07,10,01,25,17.70
2010,07,10,01,26,17.70
2010,07,10,01,27,17.70
2010,07,10,01,28,17.70
2010,07,10,01,29,17.70
2010,07,10,01,30,17.70
2010,07,10,01,31,17.70
2010,07,10,01,32,17.60
2010,07,10,01,33,17.60
2010,07,10,01,34,17.60
2010,07,10,01,35,17.60
2010,07,10,01,36,17.60
2010,07,10,01,37,17.60
2010,07,10,01,38,17.60
2010,07,10,01,39,17.60
2010,07,10,01,40,17.60
2010,07,10,01,41,17.60
2010,07,10,01,42,17.60
2010,07,10,01,43,17.60
2010,07,10,01,44,17.60
2010,07,10,01,45,17.60
2010,07,10,01,46,17.60
2010,07,10,01,47,17.60
2010,07,10,01,48,17.50
2010,07,10,01,49,17.50
2010,07,10,01,50,17.50
2010,07,10,01,51,17.50
2010,07,10,01,52,17.50
2010,07,10,01,53,17.50
2010,07,10,01,54,17.50
2010,07,10,01,55,17.40
2010,07,10,01,56,17.40
2010,07,10,01,57,17.40
2010,07,10,01,58,17.40
2010,07,10,01,59,17.40
2010,07,10,02,00,17.40
2010,07,10,02,01,17.40
2010,07,10,02,02,17.40
2010,07,10,02,03,17.40
2010,07,10,02,04,17.40
2010,07,10,02,05,17.40
2010,07,10,02,06,17.40
2010,07,10,02,07,17.40
2010,07,10,02,08,17.40
2010,07,10,02,09,17.40
2010,07,10,02,10,17.40
2010,07,10,02,11,17.40
2010,07,10,02,12,17.40
2010,07,10,02,13,17.40
2010,07,10,02,14,17.30
2010,07,10,02,15,17.30
2010,07,10,02,16,17.30
2010,07,10,02,17,17.30
2010,07,10,02,18,17.30
2010,07,10,02,19,17.30
2010,07,10,02,20,17.30
2010,07,10,02,21,17.30
2010,07,10,02,22,17.30
2010,07,10,02,23,17.30
2010,07,10,02,24,17.30
2010,07,10,02,25,17.30
2010,07,10,02,26,17.30
2010,07,10,02,27,17.20
2010,07,10,02,28,17.20
2010,07,10,02,29,17.20
2010,07,10,02,30,17.30
2010,07,10,02,31,17.30
2010,07,10,02,32,17.30
2010,07,10,02,33,17.30
2010,07,10,02,34,17.30
2010,07,10,02,35,17.30
2010,07,10,02,36,17.30
2010,07,10,02,37,17.30
2010,07,10,02,38,17.30
2010,07,10,02,39,17.30
2010,07,10,02,40,17.30
2010,07,10,02,41,17.30
2010,07,10,02,42,17.30
2010,07,10,02,43,17.30
2010,07,10,02,44,17.30
2010,07,10,02,45,17.40
2010,07,10,02,46,17.40
2010,07,10,02,47,17.40
2010,07,10,02,48,17.40
2010,07,10,02,49,17.40
2010,07,10,02,50,17.40
2010,07,10,02,51,17.40
2010,07,10,02,52,17.40
2010,07,10,02,53,17.40
2010,07,10,02,54,17.40
2010,07,10,02,55,17.40
2010,07,10,02,56,17.40
2010,07,10,02,57,17.40
2010,07,10,02,58,17.40
2010,07,10,02,59,17.40
2010,07,10,03,00,17.40
2010,07,10,03,01,17.40
2010,07,10,03,02,17.40
2010,07,10,03,03,17.30
2010,07,10,03,04,17.30
2010,07,10,03,05,17.30
2010,07,10,03,06,17.30
2010,07,10,03,07,17.30
2010,07,10,03,08,17.30
2010,07,10,03,09,17.30
2010,07,10,03,10,17.30
2010,07,10,03,11,17.30
2010,07,10,03,12,17.30
2010,07,10,03,13,17.30
2010,07,10,03,14,17.30
2010,07,10,03,15,17.30
2010,07,10,03,16,17.30
2010,07,10,03,17,17.30
2010,07,10,03,18,17.30
2010,07,10,03,19,17.30
2010,07,10,03,20,17.40
2010,07,10,03,21,17.40
2010,07,10,03,22,17.40
2010,07,10,03,23,17.40
2010,07,10,03,24,17.40
2010,07,10,03,25,17.40
2010,07,10,03,26,17.40
2010,07,10,03,27,17.40
2010,07,10,03,28,17.40
2010,07,10,03,29,17.40
2010,07,10,03,30,17.40
2010,07,10,03,31,17.40
2010,07,10,03,32,17.40
2010,07,10,03,33,17.40
2010,07,10,03,34,17.50
2010,07,10,03,35,17.50
2010,07,10,03,36,17.50
2010,07,10,03,37,17.50
2010,07,10,03,38,17.50
2010,07,10,03,39,17.60
2010,07,10,03,40,17.60
2010,07,10,03,41,17.60
2010,07,10,03,42,17.60
2010,07,10,03,43,17.60
2010,07,10,03,44,17.50
2010,07,10,03,45,17.50
2010,07,10,03,46,17.50
2010,07,10,03,47,17.50
2010,07,10,03,48,17.50
2010,07,10,03,49,17.50
2010,07,10,03,50,17.50
2010,07,10,03,51,17.50
2010,07,10,03,52,17.50
2010,07,10,03,53,17.50
2010,07,10,03,54,17.50
2010,07,10,03,55,17.60
2010,07,10,03,56,17.60
2010,07,10,03,57,17.60
2010,07,10,03,58,17.60
2010,07,10,03,59,17.60
2010,07,10,04,00,17.60
2010,07,10,04,01,17.60
2010,07,10,04,02,17.60
2010,07,10,04,03,17.60
2010,07,10,04,04,17.60
2010,07,10,04,05,17.60
2010,07,10,04,06,17.60
2010,07,10,04,07,17.60
2010,07,10,04,08,17.60
2010,07,10,04,09,17.60
2010,07,10,04,10,17.60
2010,07,10,04,11,17.60
2010,07,10,04,12,17.60
2010,07,10,04,13,17.60
2010,07,10,04,14,17.60
2010,07,10,04,15,17.60
2010,07,10,04,16,17.60
2010,07,10,04,17,17.60
2010,07,10,04,18,17.50
2010,07,10,04,19,17.50
2010,07,10,04,20,17.50
2010,07,10,04,21,17.50
2010,07,10,04,22,17.40
2010,07,10,04,23,17.40
2010,07,10,04,24,17.40
2010,07,10,04,25,17.40
2010,07,10,04,26,17.40
2010,07,10,04,27,17.40
2010,07,10,04,28,17.40
2010,07,10,04,29,17.40
2010,07,10,04,30,17.40
2010,07,10,04,31,17.30
2010,07,10,04,32,17.30
2010,07,10,04,33,17.30
2010,07,10,04,34,17.30
2010,07,10,04,35,17.30
2010,07,10,04,36,17.30
2010,07,10,04,37,17.30
2010,07,10,04,38,17.30
2010,07,10,04,39,17.20
2010,07,10,04,40,17.20
2010,07,10,04,41,17.20
2010,07,10,04,42,17.20
2010,07,10,04,43,17.20
2010,07,10,04,44,17.20
2010,07,10,04,45,17.20
2010,07,10,04,46,17.20
2010,07,10,04,47,17.20
2010,07,10,04,48,17.10
2010,07,10,04,49,17.10
2010,07,10,04,50,17.10
2010,07,10,04,51,17.10
2010,07,10,04,52,17.10
2010,07,10,04,53,17.10
2010,07,10,04,54,17.10
2010,07,10,04,55,17.10
2010,07,10,04,56,17.10
2010,07,10,04,57,17.10
2010,07,10,04,58,17.10
2010,07,10,04,59,17.00
2010,07,10,05,00,17.00
2010,07,10,05,01,17.00
2010,07,10,05,02,17.00
2010,07,10,05,03,17.00
2010,07,10,05,04,16.90
2010,07,10,05,05,16.90
2010,07,10,05,06,16.90
2010,07,10,05,07,16.90
2010,07,10,05,08,16.90
2010,07,10,05,09,16.80
2010,07,10,05,10,16.80
2010,07,10,05,11,16.80
2010,07,10,05,12,16.80
2010,07,10,05,13,16.70
2010,07,10,05,14,16.70
2010,07,10,05,15,16.70
2010,07,10,05,16,16.60
2010,07,10,05,17,16.60
2010,07,10,05,18,16.60
2010,07,10,05,19,16.50
2010,07,10,05,20,16.50
2010,07,10,05,21,16.40
2010,07,10,05,22,16.40
2010,07,10,05,23,16.40
2010,07,10,05,24,16.40
2010,07,10,05,25,16.30
2010,07,10,05,26,16.30
2010,07,10,05,27,16.30
2010,07,10,05,28,16.30
2010,07,10,05,29,16.20
2010,07,10,05,30,16.20
2010,07,10,05,31,16.20
2010,07,10,05,32,16.20
2010,07,10,05,33,16.10
2010,07,10,05,34,16.10
2010,07,10,05,35,16.10
2010,07,10,05,36,16.10
2010,07,10,05,37,16.00
2010,07,10,05,38,16.00
2010,07,10,05,39,16.00
2010,07,10,05,40,16.00
2010,07,10,05,41,15.90
2010,07,10,05,42,15.90
2010,07,10,05,43,15.90
2010,07,10,05,44,15.80
2010,07,10,05,45,15.80
2010,07,10,05,46,15.80
2010,07,10,05,47,15.80
2010,07,10,05,48,15.80
2010,07,10,05,49,15.70
2010,07,10,05,50,15.70
2010,07,10,05,51,15.70
2010,07,10,05,52,15.70
2010,07,10,05,53,15.60
2010,07,10,05,54,15.60
2010,07,10,05,55,15.60
2010,07,10,05,56,15.60
2010,07,10,05,57,15.50
2010,07,10,05,58,15.50
2010,07,10,05,59,15.50
2010,07,10,06,00,15.40
2010,07,10,06,01,15.40
2010,07,10,06,02,15.40
2010,07,10,06,03,15.40
2010,07,10,06,04,15.40
2010,07,10,06,05,15.30
2010,07,10,06,06,15.30
2010,07,10,06,07,15.30
2010,07,10,06,08,15.30
2010,07,10,06,09,15.30
2010,07,10,06,10,15.30
2010,07,10,06,11,15.20
2010,07,10,06,12,15.20
2010,07,10,06,13,15.20
2010,07,10,06,14,15.20
2010,07,10,06,15,15.20
2010,07,10,06,16,15.20
2010,07,10,06,17,15.20
2010,07,10,06,18,15.20
2010,07,10,06,19,15.10
2010,07,10,06,20,15.10
2010,07,10,06,21,15.10
2010,07,10,06,22,15.10
2010,07,10,06,23,15.10
2010,07,10,06,24,15.10
2010,07,10,06,25,15.10
2010,07,10,06,26,15.10
2010,07,10,06,27,15.10
2010,07,10,06,28,15.10
2010,07,10,06,29,15.10
2010,07,10,06,30,15.10
2010,07,10,06,31,15.10
2010,07,10,06,32,15.10
2010,07,10,06,33,15.10
2010,07,10,06,34,15.10
2010,07,10,06,35,15.10
2010,07,10,06,36,15.10
2010,07,10,06,37,15.10
2010,07,10,06,38,15.10
2010,07,10,06,39,15.10
2010,07,10,06,40,15.10
2010,07,10,06,41,15.10
2010,07,10,06,42,15.10
2010,07,10,06,43,15.10
2010,07,10,06,44,15.10
2010,07,10,06,45,15.20
2010,07,10,06,46,15.20
2010,07,10,06,47,15.20
2010,07,10,06,48,15.20
2010,07,10,06,49,15.30
2010,07,10,06,50,15.30
2010,07,10,06,51,15.30
2010,07,10,06,52,15.40
2010,07,10,06,53,15.40
2010,07,10,06,54,15.50
2010,07,10,06,55,15.50
2010,07,10,06,56,15.60
2010,07,10,06,57,15.60
2010,07,10,06,58,15.70
2010,07,10,06,59,15.70
2010,07,10,07,00,15.80
2010,07,10,07,01,15.80
2010,07,10,07,02,15.90
2010,07,10,07,03,16.00
2010,07,10,07,04,16.10
2010,07,10,07,05,16.20
2010,07,10,07,06,16.20
2010,07,10,07,07,16.30
2010,07,10,07,08,16.40
2010,07,10,07,09,16.50
2010,07,10,07,10,16.60
2010,07,10,07,11,16.70
2010,07,10,07,12,16.80
2010,07,10,07,13,16.80
2010,07,10,07,14,16.90
2010,07,10,07,15,17.00
2010,07,10,07,16,17.00
2010,07,10,07,17,17.10
2010,07,10,07,18,17.10
2010,07,10,07,19,17.20
2010,07,10,07,20,17.30
2010,07,10,07,21,17.30
2010,07,10,07,22,17.40
2010,07,10,07,23,17.40
2010,07,10,07,24,17.50
2010,07,10,07,25,17.50
2010,07,10,07,26,17.60
2010,07,10,07,27,17.60
2010,07,10,07,28,17.70
2010,07,10,07,29,17.80
2010,07,10,07,30,17.80
2010,07,10,07,31,17.80
2010,07,10,07,32,17.90
2010,07,10,07,33,17.90
2010,07,10,07,34,17.90
2010,07,10,07,35,17.90
2010,07,10,07,36,17.90
2010,07,10,07,37,18.00
2010,07,10,07,38,18.00
2010,07,10,07,39,18.00
2010,07,10,07,40,17.90
2010,07,10,07,41,17.90
2010,07,10,07,42,17.90
2010,07,10,07,43,17.90
2010,07,10,07,44,17.90
2010,07,10,07,45,17.80
2010,07,10,07,46,17.80
2010,07,10,07,47,17.80
2010,07,10,07,48,17.90
2010,07,10,07,49,17.90
2010,07,10,07,50,18.00
2010,07,10,07,51,18.00
2010,07,10,07,52,18.20
2010,07,10,07,53,18.20
2010,07,10,07,54,18.30
2010,07,10,07,55,18.40
2010,07,10,07,56,18.50
2010,07,10,07,57,18.50
2010,07,10,07,58,18.50
2010,07,10,07,59,18.50
2010,07,10,08,00,18.40
2010,07,10,08,01,18.40
2010,07,10,08,02,18.30
2010,07,10,08,03,18.30
2010,07,10,08,04,18.30
2010,07,10,08,05,18.20
2010,07,10,08,06,18.20
2010,07,10,08,07,18.20
2010,07,10,08,08,18.20
2010,07,10,08,09,18.10
2010,07,10,08,10,18.10
2010,07,10,08,11,18.00
2010,07,10,08,12,17.90
2010,07,10,08,13,17.90
2010,07,10,08,14,17.90
2010,07,10,08,15,17.80
2010,07,10,08,16,17.80
2010,07,10,08,17,17.80
2010,07,10,08,18,17.70
2010,07,10,08,19,17.70
2010,07,10,08,20,17.70
2010,07,10,08,21,17.60
2010,07,10,08,22,17.60
2010,07,10,08,23,17.60
2010,07,10,08,24,17.60
2010,07,10,08,25,17.60
2010,07,10,08,26,17.60
2010,07,10,08,27,17.60
2010,07,10,08,28,17.70
2010,07,10,08,29,17.70
2010,07,10,08,30,17.70
2010,07,10,08,31,17.70
2010,07,10,08,32,17.70
2010,07,10,08,33,17.80
2010,07,10,08,34,17.80
2010,07,10,08,35,17.80
2010,07,10,08,36,17.80
2010,07,10,08,37,17.80
2010,07,10,08,38,17.80
2010,07,10,08,39,17.90
2010,07,10,08,40,18.00
2010,07,10,08,41,18.00
2010,07,10,08,42,18.10
2010,07,10,08,43,18.10
2010,07,10,08,44,18.10
2010,07,10,08,45,18.00
2010,07,10,08,46,18.00
2010,07,10,08,47,18.00
2010,07,10,08,48,18.00
2010,07,10,08,49,18.00
2010,07,10,08,50,18.00
2010,07,10,08,51,18.00
2010,07,10,08,52,18.00
2010,07,10,08,53,18.00
2010,07,10,08,54,17.90
2010,07,10,08,55,17.90
2010,07,10,08,56,17.80
2010,07,10,08,57,17.80
2010,07,10,08,58,17.80
2010,07,10,08,59,17.80
2010,07,10,09,00,17.80
2010,07,10,09,01,17.80
2010,07,10,09,02,17.80
2010,07,10,09,03,17.80
2010,07,10,09,04,17.80
2010,07,10,09,05,17.80
2010,07,10,09,06,17.70
2010,07,10,09,07,17.70
2010,07,10,09,08,17.70
2010,07,10,09,09,17.70
2010,07,10,09,10,17.70
2010,07,10,09,11,17.70
2010,07,10,09,12,17.70
2010,07,10,09,13,17.70
2010,07,10,09,14,17.70
2010,07,10,09,15,17.70
2010,07,10,09,16,17.80
2010,07,10,09,17,17.80
2010,07,10,09,18,17.80
2010,07,10,09,19,17.80
2010,07,10,09,20,17.90
2010,07,10,09,21,17.90
2010,07,10,09,22,18.00
2010,07,10,09,23,18.00
2010,07,10,09,24,18.00
2010,07,10,09,25,18.10
2010,07,10,09,26,18.10
2010,07,10,09,27,18.10
2010,07,10,09,28,18.10
2010,07,10,09,29,18.10
2010,07,10,09,30,18.10
2010,07,10,09,31,18.10
2010,07,10,09,32,18.10
2010,07,10,09,33,18.10
2010,07,10,09,34,18.10
2010,07,10,09,35,18.10
2010,07,10,09,36,18.10
2010,07,10,09,37,18.10
2010,07,10,09,38,18.20
2010,07,10,09,39,18.30
2010,07,10,09,40,18.30
2010,07,10,09,41,18.50
2010,07,10,09,42,18.50
2010,07,10,09,43,18.70
2010,07,10,09,44,18.70
2010,07,10,09,45,18.80
2010,07,10,09,46,18.90
2010,07,10,09,47,19.00
2010,07,10,09,48,19.00
2010,07,10,09,49,19.10
2010,07,10,09,50,19.10
2010,07,10,09,51,19.10
2010,07,10,09,52,19.10
2010,07,10,09,53,19.10
2010,07,10,09,54,19.10
2010,07,10,09,55,19.00
2010,07,10,09,56,19.00
2010,07,10,09,57,19.00
2010,07,10,09,58,18.90
2010,07,10,09,59,18.90
2010,07,10,10,00,18.80
2010,07,10,10,01,18.80
2010,07,10,10,02,18.80
2010,07,10,10,03,18.70
2010,07,10,10,04,18.70
2010,07,10,10,05,18.70
2010,07,10,10,06,18.70
2010,07,10,10,07,18.70
2010,07,10,10,08,18.70
2010,07,10,10,09,18.80
2010,07,10,10,10,18.80
2010,07,10,10,11,18.90
2010,07,10,10,12,19.10
2010,07,10,10,13,19.20
2010,07,10,10,14,19.30
2010,07,10,10,15,19.40
2010,07,10,10,16,19.50
2010,07,10,10,17,19.50
2010,07,10,10,18,19.60
2010,07,10,10,19,19.60
2010,07,10,10,20,19.60
2010,07,10,10,21,19.60
2010,07,10,10,22,19.60
2010,07,10,10,23,19.60
2010,07,10,10,24,19.60
2010,07,10,10,25,19.60
2010,07,10,10,26,19.70
2010,07,10,10,27,19.70
2010,07,10,10,28,19.70
2010,07,10,10,29,19.80
2010,07,10,10,30,19.90
2010,07,10,10,31,19.90
2010,07,10,10,32,20.00
2010,07,10,10,33,20.10
2010,07,10,10,34,20.20
2010,07,10,10,35,20.20
2010,07,10,10,36,20.30
2010,07,10,10,37,20.40
2010,07,10,10,38,20.50
2010,07,10,10,39,20.60
2010,07,10,10,40,20.70
2010,07,10,10,41,20.70
2010,07,10,10,42,20.80
2010,07,10,10,43,20.80
2010,07,10,10,44,20.80
2010,07,10,10,45,20.80
2010,07,10,10,46,20.80
2010,07,10,10,47,20.90
2010,07,10,10,48,21.00
2010,07,10,10,49,21.00
2010,07,10,10,50,21.00
2010,07,10,10,51,20.90
2010,07,10,10,52,20.90
2010,07,10,10,53,20.80
2010,07,10,10,54,20.70
2010,07,10,10,55,20.60
2010,07,10,10,56,20.50
2010,07,10,10,57,20.50
2010,07,10,10,58,20.40
2010,07,10,10,59,20.50
2010,07,10,11,00,20.50
2010,07,10,11,01,20.60
2010,07,10,11,02,20.70
2010,07,10,11,03,20.80
2010,07,10,11,04,20.90
2010,07,10,11,05,21.00
2010,07,10,11,06,21.00
2010,07,10,11,07,21.10
2010,07,10,11,08,21.20
2010,07,10,11,09,21.20
2010,07,10,11,10,21.30
2010,07,10,11,11,21.30
2010,07,10,11,12,21.30
2010,07,10,11,13,21.30
2010,07,10,11,14,21.20
2010,07,10,11,15,21.10
2010,07,10,11,16,21.10
2010,07,10,11,17,21.10
2010,07,10,11,18,21.20
2010,07,10,11,19,21.20
2010,07,10,11,20,21.20
2010,07,10,11,21,21.20
2010,07,10,11,22,21.00
2010,07,10,11,23,20.90
2010,07,10,11,24,20.80
2010,07,10,11,25,20.80
2010,07,10,11,26,20.70
2010,07,10,11,27,20.60
2010,07,10,11,28,20.50
2010,07,10,11,29,20.50
2010,07,10,11,30,20.50
2010,07,10,11,31,20.50
2010,07,10,11,32,20.50
2010,07,10,11,33,20.50
2010,07,10,11,34,20.40
2010,07,10,11,35,20.40
2010,07,10,11,36,20.30
2010,07,10,11,37,20.30
2010,07,10,11,38,20.30
2010,07,10,11,39,20.30
2010,07,10,11,40,20.30
2010,07,10,11,41,20.30
2010,07,10,11,42,20.40
2010,07,10,11,43,20.40
2010,07,10,11,44,20.50
2010,07,10,11,45,20.50
2010,07,10,11,46,20.60
2010,07,10,11,47,20.60
2010,07,10,11,48,20.60
2010,07,10,11,49,20.50
2010,07,10,11,50,20.40
2010,07,10,11,51,20.50
2010,07,10,11,52,20.50
2010,07,10,11,53,20.50
2010,07,10,11,54,20.60
2010,07,10,11,55,20.60
2010,07,10,11,56,20.70
2010,07,10,11,57,20.80
2010,07,10,11,58,20.80
2010,07,10,11,59,20.90
2010,07,10,12,00,21.00
2010,07,10,12,01,21.10
2010,07,10,12,02,21.10
2010,07,10,12,03,21.20
2010,07,10,12,04,21.20
2010,07,10,12,05,21.30
2010,07,10,12,06,21.30
2010,07,10,12,07,21.30
2010,07,10,12,08,21.30
2010,07,10,12,09,21.30
2010,07,10,12,10,21.30
2010,07,10,12,11,21.20
2010,07,10,12,12,21.10
2010,07,10,12,13,21.10
2010,07,10,12,14,21.10
2010,07,10,12,15,21.10
2010,07,10,12,16,21.00
2010,07,10,12,17,21.00
2010,07,10,12,18,20.90
2010,07,10,12,19,20.90
2010,07,10,12,20,20.90
2010,07,10,12,21,20.80
2010,07,10,12,22,20.80
2010,07,10,12,23,20.90
2010,07,10,12,24,20.90
2010,07,10,12,25,20.80
2010,07,10,12,26,20.80
2010,07,10,12,27,20.80
2010,07,10,12,28,20.80
2010,07,10,12,29,20.80
2010,07,10,12,30,20.80
2010,07,10,12,31,20.80
2010,07,10,12,32,20.80
2010,07,10,12,33,20.80
2010,07,10,12,34,20.80
2010,07,10,12,35,20.90
2010,07,10,12,36,20.90
2010,07,10,12,37,20.90
2010,07,10,12,38,20.90
2010,07,10,12,39,20.90
2010,07,10,12,40,20.80
2010,07,10,12,41,20.80
2010,07,10,12,42,20.70
2010,07,10,12,43,20.70
2010,07,10,12,44,20.70
2010,07,10,12,45,20.70
2010,07,10,12,46,20.70
2010,07,10,12,47,20.70
2010,07,10,12,48,20.80
2010,07,10,12,49,20.90
2010,07,10,12,50,21.00
2010,07,10,12,51,21.20
2010,07,10,12,52,21.20
2010,07,10,12,53,21.30
2010,07,10,12,54,21.30
2010,07,10,12,55,21.30
2010,07,10,12,56,21.30
2010,07,10,12,57,21.40
2010,07,10,12,58,21.40
2010,07,10,12,59,21.40
2010,07,10,13,00,21.40
2010,07,10,13,01,21.50
2010,07,10,13,02,21.50
2010,07,10,13,03,21.60
2010,07,10,13,04,21.60
2010,07,10,13,05,21.60
2010,07,10,13,06,21.50
2010,07,10,13,07,21.40
2010,07,10,13,08,21.40
2010,07,10,13,09,21.30
2010,07,10,13,10,21.40
2010,07,10,13,11,21.40
2010,07,10,13,12,21.50
2010,07,10,13,13,21.60
2010,07,10,13,14,21.50
2010,07,10,13,15,21.50
2010,07,10,13,16,21.50
2010,07,10,13,17,21.50
2010,07,10,13,18,21.50
2010,07,10,13,19,21.50
2010,07,10,13,20,21.50
2010,07,10,13,21,21.50
2010,07,10,13,22,21.60
2010,07,10,13,23,21.60
2010,07,10,13,24,21.60
2010,07,10,13,25,21.70
2010,07,10,13,26,21.80
2010,07,10,13,27,21.90
2010,07,10,13,28,22.10
2010,07,10,13,29,22.20
2010,07,10,13,30,22.30
2010,07,10,13,31,22.40
2010,07,10,13,32,22.50
2010,07,10,13,33,22.50
2010,07,10,13,34,22.60
2010,07,10,13,35,22.60
2010,07,10,13,36,22.70
2010,07,10,13,37,22.80
2010,07,10,13,38,22.90
2010,07,10,13,39,22.90
2010,07,10,13,40,23.00
2010,07,10,13,41,23.00
2010,07,10,13,42,23.10
2010,07,10,13,43,23.10
2010,07,10,13,44,23.20
2010,07,10,13,45,23.20
2010,07,10,13,46,23.30
2010,07,10,13,47,23.40
2010,07,10,13,48,23.40
2010,07,10,13,49,23.40
2010,07,10,13,50,23.40
2010,07,10,13,51,23.40
2010,07,10,13,52,23.30
2010,07,10,13,53,23.30
2010,07,10,13,54,23.30
2010,07,10,13,55,23.40
2010,07,10,13,56,23.40
2010,07,10,13,57,23.40
2010,07,10,13,58,23.40
2010,07,10,13,59,23.40
2010,07,10,14,00,23.50
2010,07,10,14,01,23.50
2010,07,10,14,02,23.60
2010,07,10,14,03,23.60
2010,07,10,14,04,23.60
2010,07,10,14,05,23.60
2010,07,10,14,06,23.60
2010,07,10,14,07,23.60
2010,07,10,14,08,23.60
2010,07,10,14,09,23.60
2010,07,10,14,10,23.60
2010,07,10,14,11,23.60
2010,07,10,14,12,23.60
2010,07,10,14,13,23.50
2010,07,10,14,14,23.60
2010,07,10,14,15,23.60
2010,07,10,14,16,23.60
2010,07,10,14,17,23.60
2010,07,10,14,18,23.60
2010,07,10,14,19,23.60
2010,07,10,14,20,23.60
2010,07,10,14,21,23.60
2010,07,10,14,22,23.60
2010,07,10,14,23,23.60
2010,07,10,14,24,23.60
2010,07,10,14,25,23.60
2010,07,10,14,26,23.60
2010,07,10,14,27,23.50
2010,07,10,14,28,23.50
2010,07,10,14,29,23.50
2010,07,10,14,30,23.50
2010,07,10,14,31,23.40
2010,07,10,14,32,23.40
2010,07,10,14,33,23.30
2010,07,10,14,34,23.30
2010,07,10,14,35,23.20
2010,07,10,14,36,23.20
2010,07,10,14,37,23.20
2010,07,10,14,38,23.10
2010,07,10,14,39,23.00
2010,07,10,14,40,23.00
2010,07,10,14,41,23.00
2010,07,10,14,42,23.00
2010,07,10,14,43,22.90
2010,07,10,14,44,22.90
2010,07,10,14,45,22.80
2010,07,10,14,46,22.70
2010,07,10,14,47,22.70
2010,07,10,14,48,22.60
2010,07,10,14,49,22.50
2010,07,10,14,50,22.50
2010,07,10,14,51,22.50
2010,07,10,14,52,22.40
2010,07,10,14,53,22.40
2010,07,10,14,54,22.40
2010,07,10,14,55,22.40
2010,07,10,14,56,22.50
2010,07,10,14,57,22.50
2010,07,10,14,58,22.60
2010,07,10,14,59,22.70
2010,07,10,15,00,22.80
2010,07,10,15,01,22.90
2010,07,10,15,02,23.00
2010,07,10,15,03,23.10
2010,07,10,15,04,23.20
2010,07,10,15,05,23.30
2010,07,10,15,06,23.40
2010,07,10,15,07,23.50
2010,07,10,15,08,23.60
2010,07,10,15,09,23.60
2010,07,10,15,10,23.70
2010,07,10,15,11,23.80
2010,07,10,15,12,23.80
2010,07,10,15,13,23.80
2010,07,10,15,14,23.80
2010,07,10,15,15,23.80
2010,07,10,15,16,23.80
2010,07,10,15,17,23.70
2010,07,10,15,18,23.70
2010,07,10,15,19,23.70
2010,07,10,15,20,23.70
2010,07,10,15,21,23.80
2010,07,10,15,22,23.80
2010,07,10,15,23,23.90
2010,07,10,15,24,23.90
2010,07,10,15,25,24.00
2010,07,10,15,26,24.00
2010,07,10,15,27,24.00
2010,07,10,15,28,24.10
2010,07,10,15,29,24.00
2010,07,10,15,30,23.90
2010,07,10,15,31,23.90
2010,07,10,15,32,23.80
2010,07,10,15,33,23.60
2010,07,10,15,34,23.50
2010,07,10,15,35,23.50
2010,07,10,15,36,23.40
2010,07,10,15,37,23.40
2010,07,10,15,38,23.50
2010,07,10,15,39,23.60
2010,07,10,15,40,23.60
2010,07,10,15,41,23.70
2010,07,10,15,42,23.70
2010,07,10,15,43,23.70
2010,07,10,15,44,23.60
2010,07,10,15,45,23.60
2010,07,10,15,46,23.60
2010,07,10,15,47,23.60
2010,07,10,15,48,23.60
2010,07,10,15,49,23.50
2010,07,10,15,50,23.40
2010,07,10,15,51,23.30
2010,07,10,15,52,23.30
2010,07,10,15,53,23.30
2010,07,10,15,54,23.30
2010,07,10,15,55,23.30
2010,07,10,15,56,23.40
2010,07,10,15,57,23.40
2010,07,10,15,58,23.40
2010,07,10,15,59,23.20
2010,07,10,16,00,23.00
2010,07,10,16,01,22.80
2010,07,10,16,02,22.80
2010,07,10,16,03,22.70
2010,07,10,16,04,22.70
2010,07,10,16,05,22.80
2010,07,10,16,06,22.70
2010,07,10,16,07,22.80
2010,07,10,16,08,22.80
2010,07,10,16,09,22.80
2010,07,10,16,10,22.80
2010,07,10,16,11,22.70
2010,07,10,16,12,22.80
2010,07,10,16,13,22.80
2010,07,10,16,14,22.80
2010,07,10,16,15,22.90
2010,07,10,16,16,22.90
2010,07,10,16,17,23.00
2010,07,10,16,18,23.10
2010,07,10,16,19,23.20
2010,07,10,16,20,23.30
2010,07,10,16,21,23.30
2010,07,10,16,22,23.30
2010,07,10,16,23,23.30
2010,07,10,16,24,23.30
2010,07,10,16,25,23.30
2010,07,10,16,26,23.30
2010,07,10,16,27,23.30
2010,07,10,16,28,23.30
2010,07,10,16,29,23.30
2010,07,10,16,30,23.30
2010,07,10,16,31,23.30
2010,07,10,16,32,23.30
2010,07,10,16,33,23.30
2010,07,10,16,34,23.30
2010,07,10,16,35,23.30
2010,07,10,16,36,23.30
2010,07,10,16,37,23.30
2010,07,10,16,38,23.30
2010,07,10,16,39,23.30
2010,07,10,16,40,23.30
2010,07,10,19,29,20.90
2010,07,10,19,30,20.90
2010,07,10,19,31,21.00
2010,07,10,19,32,21.00
2010,07,10,19,33,21.10
2010,07,10,19,34,21.10
2010,07,10,19,35,21.10
2010,07,10,19,36,21.10
2010,07,10,19,37,21.10
2010,07,10,19,38,21.20
2010,07,10,19,39,21.20
2010,07,10,19,40,21.20
2010,07,10,19,41,21.20
2010,07,10,19,42,21.20
2010,07,10,19,43,21.20
2010,07,10,19,44,21.20
2010,07,10,19,45,21.20
2010,07,10,19,46,21.20
2010,07,10,19,47,21.20
2010,07,10,19,48,21.20
2010,07,10,19,49,21.10
2010,07,10,19,50,21.10
2010,07,10,19,51,21.00
2010,07,10,19,52,21.00
2010,07,10,19,53,21.00
2010,07,10,19,54,21.00
2010,07,10,19,55,21.00
2010,07,10,19,56,20.90
2010,07,10,19,57,20.90
2010,07,10,19,58,20.90
2010,07,10,19,59,20.90
2010,07,10,20,00,20.90
2010,07,10,20,01,20.80
2010,07,10,20,02,20.80
2010,07,10,20,03,20.80
2010,07,10,20,04,20.70
2010,07,10,20,05,20.70
2010,07,10,20,06,20.70
2010,07,10,20,07,20.70